Home   Weather   Liberec   Past weeks

Flag for Czech Republic Past Weather in Liberec, Czech Republic — Yesterday and Last 2 Weeks

Now
42 °F

Partly sunny.


Feels Like: 40 °F
Forecast: 35 / 42 °F
Wind: 3 mph from Southeast

Location: Liberec

Current Time: Feb 28, 2017 at 8:58:23 am

Latest Report: Feb 28, 2017 at 8:00 am


Visibility: 14 mi

Pressure: 29.50 "Hg

Humidity: 74%

Dew Point: 34 °F

Location of LiberecLocation

Past Weather in Liberec — Graph

°F

Liberec Temperature Yesterday

Maximum temperature yesterday: 52 °F (at 2:00 pm)
Minimum temperature yesterday: 36 °F (at 6:00 am)
Average temperature yesterday: 44 °F

High & Low Weather Summary for the Past Weeks

 TemperatureHumidityPressure
High52 °F (Feb 27, 2:00 pm)97% (Feb 17, 8:00 am)30.66 "Hg (Feb 17, 8:00 am)
Low18 °F (Feb 13, 7:00 am)17% (Feb 15, 2:00 pm)29.29 "Hg (Feb 23, 8:00 pm)
Average38 °F73%30.09 "Hg
* Reported Feb 13 7:00 am — Feb 28 7:00 am, Liberec, Weather by CustomWeather, © 2017

Note: Actual official high and low records may vary slightly from our data, if they occured in-between our weather recording intervals... More about our weather records

Advertising

Liberec Weather History for the Previous 24 Hours

Scroll right to see more
 ConditionsComfort  
Time TempWeatherWind HumidityBarometerVisibility
7:00 am
Tue, Feb 28
41 °FOvercast.6 mph78%29.44 "Hg14 mi
6:00 am41 °FQuite cool.7 mph80%29.44 "Hg12 mi
5:00 am41 °FQuite cool.8 mph79%29.47 "Hg11 mi
4:00 am42 °FQuite cool.7 mph80%29.47 "Hg12 mi
3:00 am42 °FQuite cool.6 mph79%29.50 "Hg12 mi
2:00 am42 °FQuite cool.6 mph77%29.53 "Hg12 mi
1:00 am43 °FQuite cool.7 mph75%29.54 "Hg12 mi
12:00 am43 °FQuite cool.7 mph75%29.56 "Hg12 mi
11:00 pm
Mon, Feb 27
43 °FQuite cool.5 mph70%29.58 "Hg12 mi
10:00 pm43 °FQuite cool.5 mph65%29.59 "Hg12 mi
9:00 pm43 °FPassing clouds.6 mph62%29.60 "Hg19 mi
8:00 pm44 °FPassing clouds.5 mph58%29.62 "Hg19 mi
7:00 pm46 °FPassing clouds.6 mph52%29.64 "Hg19 mi
6:00 pm49 °FCool.6 mph44%29.64 "Hg12 mi
5:00 pm51 °FCool.6 mph45%29.64 "Hg12 mi
4:00 pm51 °FPartly sunny.7 mph43%29.66 "Hg25 mi
3:00 pm51 °FPartly sunny.6 mph38%29.69 "Hg25 mi
2:00 pm52 °FScattered clouds.6 mph35%29.73 "Hg22 mi
1:00 pm51 °FPassing clouds.6 mph37%29.77 "Hg25 mi
12:00 pm49 °FScattered clouds.5 mph42%29.81 "Hg22 mi
11:00 am44 °FPartly sunny.6 mph49%29.86 "Hg25 mi
10:00 am42 °FPartly sunny.7 mph51%29.88 "Hg25 mi
9:00 am40 °FOvercast.6 mph55%29.90 "Hg25 mi
8:00 am38 °FOvercast.5 mph60%29.93 "Hg25 mi
Weather by CustomWeather, © 2017

See weather overviewHow to use our weather pages